GW1401 Weather Reports


Display with metric or nautical units.
time (UTC)temp
F
wind
direction
speed
MPH
gust
MPH
rain 1hr
in
rain 24hr
in
rain mn
in
humidity
%
barometer
mb
20260904161813 99 272 3.0 3.0 0.00 0.00 0.00 48 1019.7
20260904161308 100 125 0.0 5.0 0.00 0.00 0.00 47 1020.0
20260904160804 100 220 2.0 5.0 0.00 0.00 0.00 45 1020.0
20260904160258 99 224 0.0 3.0 0.00 0.00 0.00 46 1020.0
20260904155753 98 264 4.0 6.0 0.00 0.00 0.00 48 1019.9
20260904155252 98 91 2.0 6.0 0.00 0.00 0.00 48 1020.0
20260904154751 99 331 2.0 5.0 0.00 0.00 0.00 49 1020.1
20260904154246 98 275 4.0 6.0 0.00 0.00 0.00 50 1020.0
20260904153741 99 124 1.0 2.0 0.00 0.00 0.00 49 1020.0
20260904153231 97 99 2.0 5.0 0.00 0.00 0.00 52 1020.1
20260904152727 98 356 3.0 5.0 0.00 0.00 0.00 53 1020.0
20260904152222 98 141 0.0 1.0 0.00 0.00 0.00 55 1019.9
20260904151717 98 152 0.0 1.0 0.00 0.00 0.00 55 1020.1
20260904151216 98 155 1.0 2.0 0.00 0.00 0.00 55 1020.0
20260904150712 97 112 0.0 1.0 0.00 0.00 0.00 56 1020.0
20260904150207 96 122 0.0 1.0 0.00 0.00 0.00 58 1019.9
20260904145705 96 174 3.0 3.0 0.00 0.00 0.00 59 1020.0
20260904145201 95 277 2.0 2.0 0.00 0.00 0.00 60 1020.1
20260904144656 94 142 1.0 3.0 0.00 0.00 0.00 62 1020.0
20260904144152 93 154 2.0 2.0 0.00 0.00 0.00 64 1020.1
20260904143647 93 132 1.0 2.0 0.00 0.00 0.00 64 1020.1
20260904143144 94 145 1.0 1.0 0.00 0.00 0.00 65 1020.0
20260904142640 93 138 1.0 2.0 0.00 0.00 0.00 64 1020.0
20260904142136 94 141 1.0 1.0 0.00 0.00 0.00 63 1020.0
20260904141630 92 167 0.0 0.0 0.00 0.00 0.00 66 1020.2
20260904141126 92 132 0.0 0.0 0.00 0.00 0.00 66 1020.1
20260904140621 91 128 0.0 0.0 0.00 0.00 0.00 69 1020.2
20260904140115 89 128 0.0 0.0 0.00 0.00 0.00 72 1020.3
20260904135614 88 130 0.0 1.0 0.00 0.00 0.00 74 1019.9
20260904135111 88 128 0.0 1.0 0.00 0.00 0.00 75 1019.8
20260904134606 86 131 0.0 0.0 0.00 0.00 0.00 79 1020.1
20260904134100 85 141 0.0 2.0 0.00 0.00 0.00 81 1020.0
20260904133555 85 137 1.0 1.0 0.00 0.00 0.00 81 1020.1
20260904133051 84 128 0.0 0.0 0.00 0.00 0.00 83 1020.2
20260904132551 82 134 1.0 1.0 0.00 0.00 0.00 87 1020.1
20260904132051 80 114 0.0 1.0 0.00 0.00 0.00 92 1020.1
20260904131545 78 131 0.0 0.0 0.00 0.00 0.00 99 1019.9
20260904131041 77 123 0.0 0.0 0.00 0.00 0.00 99 1020.1
20260904130540 76 122 0.0 0.0 0.00 0.00 0.00 99 1020.0
20260904130035 76 117 0.0 0.0 0.00 0.00 0.00 99 1020.2
20260904125532 76 124 0.0 0.0 0.00 0.00 0.00 99 1019.9
20260904125026 76 120 0.0 0.0 0.00 0.00 0.00 99 1019.9
20260904124522 75 122 0.0 0.0 0.00 0.00 0.00 99 1020.0
20260904124018 75 119 0.0 0.0 0.00 0.00 0.00 99 1019.8
20260904123517 75 123 0.0 0.0 0.00 0.00 0.00 99 1019.8
20260904123013 75 123 0.0 0.0 0.00 0.00 0.00 99 1019.8
20260904122508 74 123 0.0 0.0 0.00 0.00 0.00 99 1019.6
20260904122002 74 119 0.0 0.0 0.00 0.00 0.00 99 1019.7
20260904121458 73 120 0.0 0.0 0.00 0.00 0.00 99 1019.6
20260904120954 73 119 0.0 0.0 0.00 0.00 0.00 99 1019.7
20260904120449 73 119 0.0 0.0 0.00 0.00 0.00 99 1019.6
20260904115938 73 119 0.0 0.0 0.00 0.00 0.00 99 1019.6
20260904115433 73 108 0.0 0.0 0.00 0.00 0.00 99 1019.7
20260904114928 73 124 0.0 0.0 0.00 0.00 0.00 99 1019.6
20260904114427 72 126 0.0 0.0 0.00 0.00 0.00 99 1019.5
20260904113924 72 119 0.0 0.0 0.00 0.00 0.00 99 1019.6
20260904113423 72 124 0.0 0.0 0.00 0.00 0.00 99 1019.4
20260904112922 72 127 0.0 0.0 0.00 0.00 0.00 99 1019.4
20260904112418 72 122 0.0 0.0 0.00 0.00 0.00 99 1019.2
20260904111914 72 117 0.0 0.0 0.00 0.00 0.00 99 1019.3
20260904111409 72 116 0.0 0.0 0.00 0.00 0.00 99 1019.3
20260904110905 72 117 0.0 0.0 0.00 0.00 0.00 99 1019.2
20260904110403 72 113 0.0 0.0 0.00 0.00 0.00 99 1019.1
20260904105859 72 117 0.0 0.0 0.00 0.00 0.00 99 1019.2
20260904105354 72 117 0.0 0.0 0.00 0.00 0.00 99 1019.3
20260904104849 72 112 0.0 0.0 0.00 0.00 0.00 99 1019.2
20260904104344 72 120 0.0 0.0 0.00 0.00 0.00 99 1019.1
20260904103841 72 120 0.0 0.0 0.00 0.00 0.00 99 1019.1
20260904103341 72 120 0.0 0.0 0.00 0.00 0.00 99 1019.2
20260904102837 72 120 0.0 0.0 0.00 0.00 0.00 99 1019.1
20260904102332 72 120 0.0 0.0 0.00 0.00 0.00 99 1019.1
20260904101828 72 120 0.0 0.0 0.00 0.00 0.00 99 1019.1
20260904101324 72 122 0.0 0.0 0.00 0.00 0.00 99 1019.3
20260904100820 72 117 0.0 0.0 0.00 0.00 0.00 99 1019.1
20260904100315 72 117 0.0 0.0 0.00 0.00 0.00 99 1019.0
20260904095816 72 117 0.0 0.0 0.00 0.00 0.00 99 1019.1
20260904095310 73 117 0.0 0.0 0.00 0.00 0.00 99 1019.1
20260904094806 73 117 0.0 0.0 0.00 0.00 0.00 99 1019.0
20260904094301 73 119 0.0 0.0 0.00 0.00 0.00 99 1018.9
20260904093757 73 121 0.0 0.0 0.00 0.00 0.00 99 1018.7
20260904093257 73 124 0.0 0.0 0.00 0.00 0.00 99 1018.9
20260904092752 73 117 0.0 0.0 0.00 0.00 0.00 99 1018.9
20260904092249 73 117 0.0 0.0 0.00 0.00 0.00 99 1018.8
20260904091744 73 117 0.0 0.0 0.00 0.00 0.00 99 1018.7
20260904091239 73 123 0.0 0.0 0.00 0.00 0.00 99 1018.9
20260904090734 73 124 0.0 0.0 0.00 0.00 0.00 99 1018.9
20260904090225 73 117 0.0 0.0 0.00 0.00 0.00 99 1019.0
20260904085725 73 112 0.0 1.0 0.00 0.00 0.00 99 1019.2
20260904085220 73 126 1.0 1.0 0.00 0.00 0.00 99 1019.2
20260904084714 73 117 0.0 0.0 0.00 0.00 0.00 99 1019.1
20260904084210 73 117 0.0 0.0 0.00 0.00 0.00 99 1019.0
20260904083707 73 125 0.0 0.0 0.00 0.00 0.00 99 1018.9
20260904083203 73 121 0.0 0.0 0.00 0.00 0.00 99 1018.8
20260904082703 73 121 0.0 0.0 0.00 0.00 0.00 99 1019.0
20260904082158 73 121 0.0 0.0 0.00 0.00 0.00 99 1018.9
20260904081653 73 123 0.0 0.0 0.00 0.00 0.00 99 1018.9
20260904081149 73 123 0.0 0.0 0.00 0.00 0.00 99 1019.0
20260904080644 73 117 0.0 0.0 0.00 0.00 0.00 99 1018.8
20260904080140 73 119 0.0 0.0 0.00 0.00 0.00 99 1018.6
20260904075637 73 119 0.0 0.0 0.00 0.00 0.00 99 1018.7
20260904075131 73 119 0.0 0.0 0.00 0.00 0.00 99 1018.6
20260904074631 73 117 0.0 0.0 0.00 0.00 0.00 99 1018.7
20260904074125 74 117 0.0 0.0 0.00 0.00 0.00 99 1018.7
20260904073620 74 117 0.0 0.0 0.00 0.00 0.00 99 1018.7
20260904073116 74 104 0.0 0.0 0.00 0.00 0.00 99 1018.7
20260904072612 74 121 0.0 0.0 0.00 0.00 0.00 99 1018.6
20260904072107 74 121 0.0 0.0 0.00 0.00 0.00 99 1018.6
20260904071603 74 121 0.0 0.0 0.00 0.00 0.00 99 1018.6
20260904071057 74 121 0.0 0.0 0.00 0.00 0.00 99 1018.6
20260904070556 74 121 0.0 0.0 0.00 0.00 0.00 99 1018.8
20260904070052 74 121 0.0 0.0 0.00 0.00 0.00 99 1018.8
20260904065546 74 121 0.0 0.0 0.00 0.00 0.00 99 1018.9
20260904065043 74 116 0.0 0.0 0.00 0.00 0.00 99 1018.7
20260904064538 74 109 0.0 0.0 0.00 0.00 0.00 99 1018.9
20260904064032 74 117 0.0 0.0 0.00 0.00 0.00 99 1018.8
20260904063529 74 117 0.0 0.0 0.00 0.00 0.00 99 1018.7
20260904063023 74 117 0.0 0.0 0.00 0.00 0.00 99 1018.8
20260904062520 74 117 0.0 0.0 0.00 0.00 0.00 99 1019.0
20260904062015 74 117 0.0 0.0 0.00 0.00 0.00 99 1018.9
20260904061511 74 117 0.0 0.0 0.00 0.00 0.00 99 1019.0
20260904061007 74 119 0.0 0.0 0.00 0.00 0.00 99 1019.2
20260904060503 74 119 0.0 0.0 0.00 0.00 0.00 99 1019.2
20260904055959 74 119 0.0 0.0 0.00 0.00 0.00 99 1019.2
20260904055454 74 119 0.0 0.0 0.00 0.00 0.00 99 1019.2
20260904054949 74 119 0.0 0.0 0.00 0.00 0.00 99 1019.2
20260904054445 75 119 0.0 0.0 0.00 0.00 0.00 98 1019.1
20260904053940 75 118 0.0 0.0 0.00 0.00 0.00 98 1019.1
20260904053440 75 119 0.0 0.0 0.00 0.00 0.00 98 1019.1
20260904052936 75 119 0.0 0.0 0.00 0.00 0.00 98 1019.1
20260904052432 75 119 0.0 0.0 0.00 0.00 0.00 98 1019.3
20260904051927 75 119 0.0 0.0 0.00 0.00 0.00 98 1019.0
20260904051424 75 119 0.0 0.0 0.00 0.00 0.00 98 1019.0
20260904050918 75 119 0.0 0.0 0.00 0.00 0.00 97 1019.2
20260904050414 75 119 0.0 0.0 0.00 0.00 0.00 97 1019.2
20260904045914 75 119 0.0 0.0 0.00 0.00 0.00 97 1019.1
20260904045410 75 119 0.0 0.0 0.00 0.00 0.00 97 1019.3
20260904044909 75 119 0.0 0.0 0.00 0.00 0.00 96 1019.1
20260904044406 75 119 0.0 0.0 0.00 0.00 0.00 96 1019.1
20260904043901 75 119 0.0 0.0 0.00 0.00 0.00 96 1019.3
20260904043358 75 123 0.0 0.0 0.00 0.00 0.00 96 1018.9
20260904042853 75 122 0.0 0.0 0.00 0.00 0.00 96 1019.0
20260904042349 75 123 0.0 0.0 0.00 0.00 0.00 95 1019.3
20260904041844 76 117 0.0 0.0 0.00 0.00 0.00 95 1019.1
20260904041340 76 122 0.0 0.0 0.00 0.00 0.00 95 1019.1
20260904040836 76 125 0.0 0.0 0.00 0.00 0.00 95 1019.2
20260904040330 76 123 0.0 1.0 0.00 0.00 0.00 95 1019.2
20260904035827 76 120 0.0 0.0 0.00 0.00 0.00 95 1019.0
20260904035323 76 120 0.0 0.0 0.00 0.00 0.00 95 1019.0
20260904034821 76 120 0.0 0.0 0.00 0.00 0.00 94 1019.1
20260904034317 76 120 0.0 0.0 0.00 0.00 0.00 94 1019.1
20260904033813 76 120 0.0 0.0 0.00 0.00 0.00 94 1019.3
20260904033309 76 120 0.0 0.0 0.00 0.00 0.00 94 1019.2
20260904032804 77 120 0.0 0.0 0.00 0.00 0.00 93 1019.3
20260904032259 77 120 0.0 0.0 0.00 0.00 0.00 93 1019.3
20260904031753 77 120 0.0 0.0 0.00 0.00 0.00 93 1019.3
20260904031249 77 120 0.0 0.0 0.00 0.00 0.00 93 1019.3
20260904030744 77 119 0.0 0.0 0.00 0.00 0.00 92 1019.5
20260904030239 77 120 0.0 0.0 0.00 0.00 0.00 92 1019.4
20260904025736 77 102 0.0 1.0 0.00 0.00 0.00 92 1019.2
20260904025230 77 117 0.0 0.0 0.00 0.00 0.00 91 1019.3
20260904024720 77 117 0.0 0.0 0.00 0.00 0.00 91 1019.2
20260904024215 77 117 0.0 0.0 0.00 0.00 0.00 91 1019.2
20260904023712 78 117 0.0 0.0 0.00 0.00 0.00 90 1019.1
20260904023207 78 117 0.0 0.0 0.00 0.00 0.00 90 1019.3
20260904022707 78 117 0.0 0.0 0.00 0.00 0.00 90 1019.2
20260904022203 78 117 0.0 0.0 0.00 0.00 0.00 89 1019.2
20260904021654 78 116 0.0 0.0 0.00 0.00 0.00 89 1019.3
20260904021148 78 117 0.0 0.0 0.00 0.00 0.00 88 1019.3
20260904020645 79 117 0.0 0.0 0.00 0.00 0.00 88 1019.2
20260904020138 79 117 0.0 0.0 0.00 0.00 0.00 87 1019.2
20260904015638 79 117 0.0 0.0 0.00 0.00 0.00 87 1019.2
20260904015137 79 117 0.0 0.0 0.00 0.00 0.00 87 1019.2
20260904014636 79 117 0.0 0.0 0.00 0.00 0.00 87 1019.2
20260904014132 80 117 0.0 0.0 0.00 0.00 0.00 86 1019.2
20260904013629 80 117 0.0 0.0 0.00 0.00 0.00 86 1019.1
20260904013124 80 117 0.0 0.0 0.00 0.00 0.00 85 1019.0
20260904012620 80 117 0.0 0.0 0.00 0.00 0.00 85 1019.0
20260904012119 80 117 0.0 0.0 0.00 0.00 0.00 84 1019.0
20260904011618 80 117 0.0 0.0 0.00 0.00 0.00 83 1019.1
20260904011114 81 117 0.0 0.0 0.00 0.00 0.00 83 1018.9
20260904010609 81 117 0.0 0.0 0.00 0.00 0.00 82 1018.8
20260904010105 81 117 0.0 0.0 0.00 0.00 0.00 80 1018.9
20260904005600 82 117 0.0 0.0 0.00 0.00 0.00 80 1018.7
20260904005055 82 117 0.0 0.0 0.00 0.00 0.00 79 1018.6
20260904004551 82 117 0.0 0.0 0.00 0.00 0.00 77 1018.5
20260904004046 83 117 0.0 0.0 0.00 0.00 0.00 75 1018.6
20260904003542 84 117 0.0 0.0 0.00 0.00 0.00 73 1018.5
20260904003037 84 117 0.0 0.0 0.00 0.00 0.00 72 1018.3
20260904002533 85 117 0.0 0.0 0.00 0.00 0.00 72 1018.3
20260904002032 85 117 0.0 0.0 0.00 0.00 0.00 73 1018.2
20260904001529 86 117 0.0 0.0 0.00 0.00 0.00 72 1018.2
20260904001027 87 117 0.0 0.0 0.00 0.00 0.00 69 1018.2
20260904000527 88 117 0.0 0.0 0.00 0.00 0.00 67 1018.1
20260904000023 89 117 0.0 0.0 0.00 0.00 0.00 64 1018.1
20260903235518 90 117 0.0 0.0 0.00 0.00 0.00 61 1018.2
20260903235014 91 117 0.0 0.0 0.00 0.00 0.00 59 1018.1
20260903234509 92 117 0.0 0.0 0.00 0.00 0.00 57 1017.9
20260903234005 93 116 0.0 1.0 0.00 0.00 0.00 55 1017.9
20260903233501 95 132 0.0 0.0 0.00 0.00 0.00 52 1018.1
20260903232955 96 119 0.0 1.0 0.00 0.00 0.00 52 1018.0
20260903232451 97 136 0.0 1.0 0.00 0.00 0.00 46 1018.0
20260903231950 98 144 1.0 2.0 0.00 0.00 0.00 45 1018.0
20260903231445 98 124 0.0 2.0 0.00 0.00 0.00 44 1017.9
20260903230940 99 156 0.0 0.0 0.00 0.00 0.00 44 1017.9
20260903230436 98 154 0.0 2.0 0.00 0.00 0.00 43 1017.9
20260903225932 98 199 1.0 3.0 0.00 0.00 0.00 43 1017.8
20260903225427 99 192 1.0 5.0 0.00 0.00 0.00 42 1017.8
20260903224923 100 189 1.0 2.0 0.00 0.00 0.00 42 1018.0
20260903224419 100 177 0.0 3.0 0.00 0.00 0.00 41 1017.9
20260903223915 100 245 2.0 3.0 0.00 0.00 0.00 41 1017.8
20260903223414 100 240 2.0 3.0 0.00 0.00 0.00 41 1017.7
20260903222913 101 105 1.0 2.0 0.00 0.00 0.00 40 1018.0
20260903222409 100 191 2.0 2.0 0.00 0.00 0.00 40 1017.8
20260903221903 100 353 2.0 2.0 0.00 0.00 0.00 41 1017.9
20260903221401 100 261 1.0 2.0 0.00 0.00 0.00 40 1017.9
20260903220900 100 164 1.0 2.0 0.00 0.00 0.00 40 1017.9
20260903220349 101 319 2.0 7.0 0.00 0.00 0.00 40 1017.7
20260903215847 101 141 0.0 1.0 0.00 0.00 0.00 39 1018.0
20260903215343 101 185 0.0 2.0 0.00 0.00 0.00 40 1018.0
20260903214841 101 177 2.0 5.0 0.00 0.00 0.00 39 1017.9
20260903214332 100 282 2.0 2.0 0.00 0.00 0.00 40 1017.9
20260903213826 101 117 3.0 3.0 0.00 0.00 0.00 40 1018.0
20260903213321 100 226 3.0 3.0 0.00 0.00 0.00 41 1017.9
20260903212817 101 122 2.0 3.0 0.00 0.00 0.00 40 1018.2
20260903212314 100 250 1.0 2.0 0.00 0.00 0.00 42 1018.1
20260903211813 99 271 2.0 5.0 0.00 0.00 0.00 43 1018.1
20260903211309 101 324 5.0 6.0 0.00 0.00 0.00 42 1018.1
20260903210805 101 213 2.0 2.0 0.00 0.00 0.00 41 1018.0
20260903210300 100 163 1.0 3.0 0.00 0.00 0.00 42 1018.3
20260903205800 100 186 1.0 6.0 0.00 0.00 0.00 43 1018.3
20260903205259 101 274 3.0 3.0 0.00 0.00 0.00 41 1018.4
20260903204800 101 165 1.0 5.0 0.00 0.00 0.00 40 1018.4
20260903204256 102 200 3.0 5.0 0.00 0.00 0.00 41 1018.4
20260903203751 101 159 1.0 2.0 0.00 0.00 0.00 43 1018.5
20260903203247 99 122 3.0 6.0 0.00 0.00 0.00 45 1018.6
20260903202745 99 138 1.0 2.0 0.00 0.00 0.00 45 1018.8
20260903202242 100 227 1.0 3.0 0.00 0.00 0.00 44 1018.7
20260903201741 101 132 3.0 6.0 0.00 0.00 0.00 42 1018.5
20260903201237 100 123 1.0 3.0 0.00 0.00 0.00 44 1018.7
20260903200735 101 155 2.0 6.0 0.00 0.00 0.00 43 1018.6
20260903200231 100 150 2.0 9.0 0.00 0.00 0.00 45 1018.8
20260903195726 101 134 1.0 7.0 0.00 0.00 0.00 43 1019.0
20260903195223 101 163 1.0 7.0 0.00 0.00 0.00 43 1018.8
20260903194722 100 231 2.0 5.0 0.00 0.00 0.00 43 1018.9
20260903194218 100 243 3.0 5.0 0.00 0.00 0.00 43 1018.8
20260903193713 101 145 2.0 3.0 0.00 0.00 0.00 43 1019.0
20260903193208 100 141 3.0 6.0 0.00 0.00 0.00 44 1019.1
20260903192704 101 158 0.0 3.0 0.00 0.00 0.00 45 1019.2
20260903192200 100 215 2.0 3.0 0.00 0.00 0.00 44 1019.2
20260903191656 99 188 3.0 8.0 0.00 0.00 0.00 45 1019.2
20260903191155 99 200 1.0 5.0 0.00 0.00 0.00 45 1019.3
20260903190650 100 336 3.0 5.0 0.00 0.00 0.00 45 1019.2
20260903190145 98 129 0.0 1.0 0.00 0.00 0.00 45 1019.4
20260903185640 98 247 2.0 3.0 0.00 0.00 0.00 46 1019.4
20260903185135 98 127 2.0 2.0 0.00 0.00 0.00 45 1019.4
20260903184632 99 199 2.0 5.0 0.00 0.00 0.00 44 1019.4
20260903184128 100 187 1.0 6.0 0.00 0.00 0.00 45 1019.4
20260903183626 99 112 1.0 6.0 0.00 0.00 0.00 46 1019.4
20260903183121 100 128 3.0 7.0 0.00 0.00 0.00 45 1019.6
20260903182620 100 131 3.0 8.0 0.00 0.00 0.00 45 1019.6
20260903182117 100 11 2.0 3.0 0.00 0.00 0.00 43 1019.8
20260903181614 101 291 4.0 5.0 0.00 0.00 0.00 43 1019.6
20260903181109 98 134 0.0 5.0 0.00 0.00 0.00 47 1019.8
20260903180604 99 138 3.0 5.0 0.00 0.00 0.00 46 1019.8
20260903180059 101 149 3.0 3.0 0.00 0.00 0.00 43 1019.9
20260903175558 100 39 1.0 6.0 0.00 0.00 0.00 45 1019.8
20260903175057 100 160 1.0 5.0 0.00 0.00 0.00 45 1019.9
20260903174552 100 162 0.0 2.0 0.00 0.00 0.00 46 1020.0
20260903174047 99 314 3.0 6.0 0.00 0.00 0.00 45 1020.1
20260903173542 99 69 2.0 5.0 0.00 0.00 0.00 47 1020.1
20260903173038 100 55 2.0 5.0 0.00 0.00 0.00 45 1020.2
20260903172533 100 146 1.0 3.0 0.00 0.00 0.00 45 1019.9
20260903172028 99 179 1.0 2.0 0.00 0.00 0.00 45 1020.2
20260903171523 99 220 3.0 7.0 0.00 0.00 0.00 46 1020.2
20260903171018 100 259 5.0 8.0 0.00 0.00 0.00 46 1020.2
20260903170511 98 151 2.0 3.0 0.00 0.00 0.00 46 1020.2
20260903170007 99 187 2.0 5.0 0.00 0.00 0.00 46 1020.4
20260903165505 99 36 3.0 5.0 0.00 0.00 0.00 46 1020.1
20260903165001 100 145 4.0 9.0 0.00 0.00 0.00 46 1020.4
20260903164455 99 334 1.0 5.0 0.00 0.00 0.00 47 1020.4
20260903163955 99 13 5.0 7.0 0.00 0.00 0.00 46 1020.6
20260903163451 100 348 3.0 6.0 0.00 0.00 0.00 46 1020.5
20260903162946 98 178 2.0 3.0 0.00 0.00 0.00 48 1020.6
20260903162437 98 165 0.0 5.0 0.00 0.00 0.00 48 1020.8